KD9QAC Weather Reports


time (UTC)temp
F
wind
direction
speed
knots
gust
knots
rain 1hr
in
rain 24hr
in
rain mn
in
humidity
%
barometer
mb
20260906174009 75 81 1.7 4.3 0.00 0.00 0.00 67 1021.9
20260906173512 75 51 1.7 4.3 0.00 0.00 0.00 64 1021.9
20260906173017 75 194 1.7 4.3 0.00 0.00 0.00 64 1021.9
20260906172512 75 19 0.9 2.6 0.00 0.00 0.00 65 1021.9
20260906172010 74 75 0.0 2.6 0.00 0.00 0.00 64 1022.0
20260906171521 75 157 0.0 2.6 0.00 0.00 0.00 65 1022.0
20260906171009 75 51 0.9 2.6 0.00 0.00 0.00 66 1022.0
20260906170510 74 136 0.9 2.6 0.00 0.00 0.00 68 1022.1
20260906170016 75 77 0.0 2.6 0.00 0.00 0.00 69 1022.1
20260906165512 74 68 1.7 2.6 0.00 0.00 0.00 68 1022.0
20260906165012 74 78 0.0 1.7 0.00 0.00 0.00 68 1022.2
20260906164518 75 50 0.0 2.6 0.00 0.00 0.00 70 1022.2
20260906164013 75 79 0.0 2.6 0.00 0.00 0.00 67 1022.2
20260906163514 74 17 0.9 2.6 0.00 0.00 0.00 70 1022.2
20260906163017 73 349 0.0 5.2 0.00 0.00 0.00 70 1022.2
20260906162515 74 29 2.6 5.2 0.00 0.00 0.00 69 1022.1
20260906162010 73 200 0.9 3.5 0.00 0.00 0.00 71 1022.2
20260906161520 74 98 0.9 3.5 0.00 0.00 0.00 71 1022.2
20260906161015 74 111 0.0 1.7 0.00 0.00 0.00 74 1022.2
20260906160514 73 81 0.0 2.6 0.00 0.00 0.00 70 1022.2
20260906160024 74 82 0.9 2.6 0.00 0.00 0.00 72 1022.3
20260906155512 74 102 0.0 2.6 0.00 0.00 0.00 72 1022.3
20260906155011 74 120 0.9 1.7 0.00 0.00 0.00 72 1022.3
20260906154524 73 13 0.0 2.6 0.00 0.00 0.00 76 1022.2
20260906154014 72 71 0.0 2.6 0.00 0.00 0.00 73 1022.2
20260906153513 73 15 0.0 1.7 0.00 0.00 0.00 75 1022.3
20260906153025 72 89 0.0 1.7 0.00 0.00 0.00 74 1022.5
20260906152512 72 12 0.0 1.7 0.00 0.00 0.00 75 1022.5
20260906152011 72 146 0.0 3.5 0.00 0.00 0.00 74 1022.4
20260906151529 72 146 0.9 3.5 0.00 0.00 0.00 71 1022.3
20260906151016 72 163 0.0 4.3 0.00 0.00 0.00 73 1022.2
20260906150514 72 115 1.7 4.3 0.00 0.00 0.00 74 1022.1
20260906150021 71 92 0.0 3.5 0.00 0.00 0.00 74 1022.1
20260906145514 72 112 0.9 2.6 0.00 0.00 0.00 76 1022.1
20260906145014 71 95 0.9 1.7 0.00 0.00 0.00 75 1022.1
20260906144508 71 61 0.0 1.7 0.00 0.00 0.00 76 1022.1
20260906144008 71 72 0.0 1.7 0.00 0.00 0.00 75 1022.0
20260906143506 71 69 0.9 1.7 0.00 0.00 0.00 75 1022.1
20260906143012 71 111 0.0 1.7 0.00 0.00 0.00 76 1022.1
20260906142508 70 111 0.0 1.7 0.00 0.00 0.00 76 1022.1
20260906142009 70 70 0.0 1.7 0.00 0.00 0.00 77 1022.2
20260906141521 70 109 0.0 1.7 0.00 0.00 0.00 80 1022.2
20260906141010 69 178 0.0 1.7 0.00 0.00 0.00 80 1022.2
20260906140510 69 178 0.0 1.7 0.00 0.00 0.00 78 1022.1
20260906140003 69 178 0.0 2.6 0.00 0.00 0.00 81 1022.2
20260906135507 68 178 0.0 2.6 0.00 0.00 0.00 84 1022.2
20260906135007 67 167 0.9 2.6 0.00 0.00 0.00 86 1022.1
20260906134508 67 150 0.0 1.7 0.00 0.00 0.00 89 1022.1
20260906134005 66 130 0.0 1.7 0.00 0.00 0.00 89 1022.0
20260906133506 66 130 0.0 1.7 0.00 0.00 0.00 91 1021.9
20260906133011 65 61 0.0 1.7 0.00 0.00 0.00 91 1021.9
20260906132513 65 50 0.0 0.0 0.00 0.00 0.00 92 1022.0
20260906132007 65 50 0.0 0.0 0.00 0.00 0.00 92 1021.9
20260906131516 64 50 0.0 0.0 0.00 0.00 0.00 92 1022.0
20260906131015 64 25 0.0 0.0 0.00 0.00 0.00 93 1021.9
20260906130509 63 25 0.0 0.0 0.00 0.00 0.00 93 1022.0
20260906130020 63 25 0.0 0.0 0.00 0.00 0.00 93 1022.0
20260906125510 63 25 0.0 0.0 0.00 0.00 0.00 93 1022.0
20260906125010 63 25 0.0 0.0 0.00 0.00 0.00 93 1021.9
20260906124506 62 25 0.0 0.0 0.00 0.00 0.00 93 1021.9
20260906124008 62 25 0.0 0.0 0.00 0.00 0.00 93 1021.9
20260906123505 62 25 0.0 0.0 0.00 0.00 0.00 93 1021.8
20260906123017 61 25 0.0 0.0 0.00 0.00 0.00 93 1021.6
20260906122508 61 25 0.0 0.0 0.00 0.00 0.00 93 1021.6
20260906122008 60 25 0.0 0.0 0.00 0.00 0.00 92 1021.6
20260906121533 60 25 0.0 0.0 0.00 0.00 0.00 92 1021.5
20260906121012 60 25 0.0 0.0 0.00 0.00 0.00 92 1021.3
20260906120512 60 25 0.0 0.0 0.00 0.00 0.00 92 1021.3
20260906120017 60 25 0.0 0.0 0.00 0.00 0.00 92 1021.3
20260906115513 60 25 0.0 0.0 0.00 0.01 0.00 92 1021.4
20260906115014 60 25 0.0 0.0 0.00 0.01 0.00 92 1021.2
20260906114528 60 25 0.0 0.0 0.00 0.01 0.00 92 1021.0
20260906114010 60 25 0.0 0.0 0.00 0.01 0.00 92 1020.9
20260906113507 60 25 0.0 0.0 0.00 0.02 0.00 92 1020.8
20260906113024 60 25 0.0 0.0 0.00 0.02 0.00 92 1020.7
20260906112507 60 25 0.0 0.0 0.00 0.02 0.00 92 1020.7
20260906112010 60 25 0.0 0.0 0.00 0.02 0.00 92 1020.8
20260906111515 60 25 0.0 0.0 0.00 0.02 0.00 92 1020.8
20260906111011 60 25 0.0 0.0 0.00 0.02 0.00 92 1020.8
20260906110510 60 25 0.0 0.0 0.00 0.02 0.00 92 1020.8
20260906110021 59 25 0.0 0.0 0.00 0.02 0.00 92 1020.7
20260906105512 59 25 0.0 0.0 0.00 0.02 0.00 92 1020.6
20260906105014 59 25 0.0 0.0 0.00 0.02 0.00 92 1020.5
20260906104529 60 25 0.0 0.0 0.00 0.02 0.00 92 1020.6
20260906104014 60 25 0.0 0.0 0.00 0.02 0.00 92 1020.5
20260906103514 60 25 0.0 0.0 0.00 0.02 0.00 92 1020.5
20260906103024 60 25 0.0 0.0 0.00 0.02 0.00 92 1020.6
20260906102513 60 25 0.0 0.0 0.00 0.02 0.00 92 1020.6
20260906102007 60 25 0.0 0.0 0.00 0.02 0.00 92 1020.6
20260906101509 60 25 0.0 0.0 0.00 0.02 0.00 92 1020.7
20260906101010 59 25 0.0 0.0 0.00 0.02 0.00 92 1020.7
20260906100511 59 25 0.0 0.0 0.00 0.02 0.00 92 1020.6
20260906100019 59 25 0.0 0.0 0.00 0.02 0.00 92 1020.6
20260906095514 59 25 0.0 0.0 0.00 0.02 0.00 92 1020.5
20260906095012 59 25 0.0 0.0 0.00 0.02 0.00 92 1020.4
20260906094524 58 25 0.0 0.0 0.00 0.02 0.00 91 1020.3
20260906094014 59 25 0.0 0.0 0.00 0.02 0.00 92 1020.3
20260906093518 59 25 0.0 0.0 0.00 0.02 0.00 92 1020.3
20260906093025 58 25 0.0 0.0 0.00 0.02 0.00 91 1020.4
20260906092515 59 25 0.0 0.0 0.00 0.02 0.00 92 1020.2
20260906092018 58 25 0.0 0.0 0.00 0.02 0.00 91 1020.3
20260906091533 58 25 0.0 0.0 0.00 0.02 0.00 91 1020.3
20260906091016 58 25 0.0 0.0 0.00 0.02 0.00 91 1020.3
20260906090509 58 25 0.0 0.0 0.00 0.02 0.00 91 1020.2
20260906090014 58 25 0.0 0.0 0.00 0.02 0.00 91 1020.2
20260906085516 58 25 0.0 0.0 0.00 0.02 0.00 91 1020.2
20260906085012 58 25 0.0 0.0 0.00 0.02 0.00 91 1020.2
20260906084520 58 25 0.0 0.0 0.00 0.02 0.00 91 1020.1
20260906084013 59 25 0.0 0.0 0.00 0.02 0.00 91 1020.2
20260906083518 59 25 0.0 0.0 0.00 0.02 0.00 91 1020.2
20260906083030 59 42 0.0 0.0 0.00 0.02 0.00 91 1020.1
20260906082516 59 42 0.0 0.0 0.00 0.02 0.00 91 1020.1
20260906082014 59 42 0.0 0.0 0.00 0.02 0.00 91 1020.1
20260906081539 59 42 0.0 0.0 0.00 0.02 0.00 91 1020.1
20260906081014 59 42 0.0 0.0 0.00 0.02 0.00 91 1020.1
20260906080516 58 42 0.0 0.0 0.00 0.02 0.00 91 1020.1
20260906080031 59 42 0.0 0.0 0.00 0.02 0.00 91 1020.1
20260906075510 59 42 0.0 0.0 0.00 0.02 0.00 91 1020.1
20260906075011 59 42 0.0 0.0 0.00 0.02 0.00 91 1020.2
20260906074521 59 42 0.0 0.0 0.00 0.02 0.00 91 1020.2
20260906074013 59 42 0.0 0.0 0.00 0.02 0.00 91 1020.1
20260906073514 59 42 0.0 0.0 0.00 0.02 0.00 91 1020.1
20260906073027 59 42 0.0 0.0 0.00 0.02 0.00 91 1020.1
20260906072514 59 42 0.0 0.0 0.00 0.02 0.00 91 1020.1
20260906072017 59 42 0.0 0.0 0.00 0.02 0.00 91 1020.0
20260906071529 59 42 0.0 0.0 0.00 0.02 0.00 91 1020.1
20260906071022 59 42 0.0 0.0 0.00 0.02 0.00 91 1020.0
20260906070516 59 42 0.0 0.0 0.00 0.02 0.00 91 1019.9
20260906070032 59 42 0.0 0.0 0.00 0.02 0.00 90 1020.0
20260906065516 59 42 0.0 0.0 0.00 0.02 0.00 90 1020.0
20260906065019 59 42 0.0 0.0 0.00 0.02 0.00 90 1019.9
20260906064527 59 42 0.0 0.0 0.00 0.02 0.00 90 1019.9
20260906064012 59 42 0.0 0.0 0.00 0.02 0.00 90 1019.9
20260906063512 59 42 0.0 0.0 0.00 0.02 0.00 90 1019.9
20260906063024 59 42 0.0 0.0 0.00 0.02 0.00 90 1019.9
20260906062515 58 42 0.0 0.0 0.00 0.02 0.00 90 1020.0
20260906062016 58 42 0.0 0.0 0.00 0.02 0.00 90 1019.8
20260906061528 58 42 0.0 0.0 0.00 0.02 0.00 90 1019.8
20260906061017 58 42 0.0 0.0 0.00 0.02 0.00 90 1019.8
20260906060518 58 42 0.0 0.0 0.00 0.02 0.00 90 1019.8
20260906060034 58 42 0.0 0.0 0.00 0.02 0.00 90 1019.7
20260906055515 58 42 0.0 0.0 0.00 0.02 0.00 90 1019.8
20260906055018 58 42 0.0 0.0 0.00 0.02 0.00 90 1019.7
20260906054535 58 42 0.0 0.0 0.00 0.02 0.00 90 1019.6
20260906054018 59 42 0.0 0.0 0.00 0.02 0.00 90 1019.6
20260906053517 59 42 0.0 0.0 0.00 0.02 0.00 89 1019.6
20260906053034 59 42 0.0 0.0 0.00 0.02 0.00 89 1019.6
20260906052512 59 42 0.0 0.0 0.00 0.02 0.00 89 1019.6
20260906052014 59 42 0.0 0.0 0.00 0.02 0.00 89 1019.5
20260906051527 59 42 0.0 0.0 0.00 0.02 0.00 89 1019.4
20260906051017 58 42 0.0 0.0 0.00 0.02 0.00 89 1019.3
20260906050517 58 42 0.0 0.0 0.00 0.02 0.00 89 1019.4
20260906050043 59 42 0.0 0.0 0.00 0.02 0.00 89 1019.5
20260906045517 59 42 0.0 0.0 0.00 0.02 0.02 89 1019.6
20260906045014 59 42 0.0 0.0 0.00 0.02 0.02 89 1019.6
20260906044536 59 42 0.0 0.0 0.00 0.02 0.02 88 1019.6
20260906044021 59 42 0.0 0.0 0.00 0.02 0.02 88 1019.5
20260906043521 59 42 0.0 0.0 0.00 0.02 0.02 88 1019.4
20260906043031 59 42 0.0 0.0 0.00 0.02 0.02 88 1019.4
20260906042517 59 42 0.0 0.0 0.00 0.02 0.02 88 1019.4
20260906042015 59 42 0.0 0.0 0.00 0.02 0.02 88 1019.5
20260906041531 59 42 0.0 0.0 0.00 0.02 0.02 87 1019.3
20260906041015 59 42 0.0 0.0 0.00 0.02 0.02 87 1019.3
20260906040514 60 42 0.0 0.0 0.00 0.02 0.02 87 1019.2
20260906040033 60 42 0.0 0.0 0.00 0.02 0.02 87 1019.2
20260906035519 60 42 0.0 0.0 0.00 0.02 0.02 88 1019.3
20260906035018 60 42 0.0 0.0 0.00 0.02 0.02 88 1019.3
20260906034535 60 42 0.0 0.0 0.00 0.02 0.02 88 1019.2
20260906034018 60 42 0.0 0.0 0.00 0.02 0.02 87 1019.1
20260906033517 60 42 0.0 0.0 0.00 0.02 0.02 87 1019.0
20260906033044 60 42 0.0 0.0 0.00 0.02 0.02 88 1019.1
20260906032518 60 42 0.0 0.0 0.00 0.02 0.02 88 1019.0
20260906032017 60 42 0.0 0.0 0.00 0.02 0.02 88 1018.9
20260906031544 60 42 0.0 0.0 0.00 0.02 0.02 88 1018.8
20260906031018 60 42 0.0 0.0 0.00 0.02 0.02 88 1019.0
20260906030520 60 42 0.0 0.0 0.00 0.02 0.02 87 1019.0
20260906030025 61 42 0.0 0.0 0.00 0.02 0.02 87 1019.0
20260906025514 61 42 0.0 0.0 0.00 0.02 0.02 87 1019.0
20260906025018 61 42 0.0 0.0 0.00 0.02 0.02 87 1018.9
20260906024530 61 42 0.0 0.0 0.00 0.02 0.02 86 1018.9
20260906024012 61 42 0.0 0.0 0.00 0.02 0.02 87 1019.1
20260906023508 61 42 0.0 0.0 0.00 0.02 0.02 87 1019.0
20260906023012 61 42 0.0 0.0 0.00 0.02 0.02 87 1019.0
20260906022509 61 42 0.0 0.0 0.00 0.02 0.02 86 1019.0
20260906022012 61 42 0.0 0.0 0.00 0.02 0.02 86 1018.9
20260906021520 62 42 0.0 0.0 0.00 0.02 0.02 86 1018.9
20260906021014 62 42 0.0 0.0 0.00 0.02 0.02 86 1019.0
20260906020515 62 42 0.0 0.0 0.00 0.02 0.02 86 1019.1
20260906020025 62 42 0.0 0.0 0.00 0.02 0.02 86 1019.0
20260906015515 62 42 0.0 0.0 0.00 0.02 0.02 86 1019.0
20260906015015 62 42 0.0 0.0 0.00 0.02 0.02 86 1019.0
20260906014532 62 42 0.0 0.0 0.00 0.02 0.02 86 1018.9
20260906014018 62 42 0.0 0.0 0.00 0.02 0.02 86 1018.9
20260906013515 62 42 0.0 0.0 0.00 0.02 0.02 86 1018.8
20260906013014 63 42 0.0 0.0 0.00 0.02 0.02 86 1018.8
20260906012509 63 42 0.0 0.0 0.00 0.02 0.02 86 1018.8
20260906012012 63 42 0.0 0.0 0.00 0.02 0.02 86 1018.9
20260906011523 63 42 0.0 0.0 0.00 0.02 0.02 86 1018.8
20260906011009 63 42 0.0 0.0 0.00 0.02 0.02 85 1018.8
20260906010516 64 42 0.0 0.0 0.00 0.02 0.02 85 1018.7
20260906010025 64 42 0.0 0.0 0.00 0.02 0.02 84 1018.6
20260906005514 64 42 0.0 0.0 0.00 0.02 0.02 83 1018.6
20260906005017 64 42 0.0 0.0 0.00 0.02 0.02 83 1018.5
20260906004527 65 42 0.0 0.0 0.00 0.02 0.02 82 1018.6
20260906004014 65 42 0.0 0.0 0.00 0.02 0.02 80 1018.5
20260906003518 66 42 0.0 0.0 0.00 0.02 0.02 80 1018.6
20260906003030 66 42 0.0 0.0 0.00 0.02 0.02 80 1018.7
20260906002516 66 42 0.0 0.0 0.00 0.02 0.02 79 1018.7
20260906002010 67 42 0.0 0.0 0.00 0.02 0.02 78 1018.7
20260906001512 67 42 0.0 0.0 0.00 0.02 0.02 77 1018.7
20260906001011 68 42 0.0 0.0 0.00 0.02 0.02 77 1018.6
20260906000510 68 42 0.0 0.0 0.00 0.02 0.02 76 1018.4
20260906000020 69 42 0.0 0.0 0.00 0.02 0.02 75 1018.4
20260905235511 69 42 0.0 0.0 0.00 0.02 0.02 74 1018.3
20260905235018 69 42 0.0 0.0 0.00 0.02 0.02 74 1018.3
20260905234526 70 42 0.0 0.0 0.00 0.02 0.02 73 1018.4
20260905234014 70 42 0.0 0.0 0.00 0.02 0.02 73 1018.5
20260905233515 70 42 0.0 1.7 0.00 0.02 0.02 73 1018.7
20260905233030 71 42 0.0 4.3 0.00 0.02 0.02 72 1018.9
20260905232516 71 42 0.0 4.3 0.00 0.02 0.02 71 1019.0
20260905232016 71 22 0.0 1.7 0.00 0.02 0.02 71 1019.1
20260905231533 72 64 0.0 1.7 0.00 0.02 0.02 71 1019.0
20260905231016 72 62 0.0 1.7 0.00 0.02 0.02 71 1018.9
20260905230511 72 11 0.9 1.7 0.00 0.02 0.02 71 1018.8
20260905230019 72 55 0.0 1.7 0.00 0.02 0.02 71 1018.8
20260905225512 72 84 0.0 1.7 0.00 0.02 0.02 71 1018.8
20260905225012 73 50 0.0 1.7 0.00 0.02 0.02 70 1018.7
20260905224533 73 106 0.0 2.6 0.00 0.02 0.02 71 1018.7
20260905224019 73 46 0.0 2.6 0.00 0.02 0.02 70 1018.6
20260905223514 73 344 0.0 2.6 0.00 0.02 0.02 70 1018.5
20260905223030 74 79 0.0 2.6 0.00 0.02 0.02 69 1018.4
20260905222515 74 56 0.0 1.7 0.00 0.02 0.02 71 1018.4
20260905222014 74 95 0.0 2.6 0.00 0.02 0.02 71 1018.4
20260905221531 75 75 0.0 2.6 0.00 0.02 0.02 70 1018.3
20260905221019 75 32 0.9 2.6 0.00 0.02 0.02 69 1018.3
20260905220517 75 62 0.0 3.5 0.00 0.02 0.02 70 1018.4
20260905220039 75 62 0.0 3.5 0.00 0.02 0.02 70 1018.5
20260905215512 75 12 0.9 3.5 0.00 0.02 0.02 69 1018.4
20260905215010 75 71 0.0 4.3 0.00 0.02 0.02 72 1018.4
20260905214524 75 24 0.9 4.3 0.00 0.02 0.02 70 1018.4
20260905214014 76 317 0.9 3.5 0.00 0.02 0.02 69 1018.5
20260905213514 75 81 0.0 3.5 0.00 0.02 0.02 70 1018.5
20260905213027 75 20 0.9 6.1 0.00 0.02 0.02 70 1018.6
20260905212514 74 5 1.7 6.1 0.00 0.02 0.02 68 1018.5
20260905212018 75 90 0.0 3.5 0.00 0.02 0.02 69 1018.5
20260905211532 75 53 0.9 4.3 0.00 0.02 0.02 68 1018.5
20260905211016 76 78 0.9 4.3 0.00 0.02 0.02 68 1018.5
20260905210519 76 5 0.9 4.3 0.00 0.02 0.02 69 1018.4
20260905210033 75 14 0.0 4.3 0.00 0.02 0.02 68 1018.4
20260905205518 76 19 1.7 4.3 0.00 0.02 0.02 67 1018.4
20260905205020 76 101 0.0 3.5 0.00 0.02 0.02 71 1018.3
20260905204535 75 17 0.0 3.5 0.00 0.02 0.02 72 1018.3
20260905204013 75 18 0.9 6.1 0.00 0.02 0.02 69 1018.2
20260905203512 76 50 0.9 7.8 0.00 0.02 0.02 69 1018.3
20260905203028 75 17 2.6 7.8 0.00 0.02 0.02 70 1018.2
20260905202514 75 42 1.7 6.1 0.00 0.02 0.02 71 1018.2
20260905202017 75 68 0.9 6.1 0.00 0.02 0.02 70 1018.2
20260905201532 75 96 0.9 2.6 0.00 0.02 0.02 72 1018.2
20260905201019 74 77 0.9 1.7 0.00 0.02 0.02 74 1018.3
20260905200517 74 130 0.0 1.7 0.00 0.02 0.02 75 1018.4
20260905200033 73 92 0.0 1.7 0.00 0.02 0.02 76 1018.4
20260905195516 73 44 0.9 3.5 0.00 0.02 0.02 75 1018.4
20260905195020 73 88 0.0 3.5 0.00 0.02 0.02 76 1018.5
20260905194537 74 83 0.0 2.6 0.00 0.02 0.02 76 1018.5
20260905194020 74 105 0.9 2.6 0.00 0.02 0.02 76 1018.4
20260905193519 75 360 0.9 2.6 0.00 0.02 0.02 77 1018.5
20260905193027 75 83 0.9 1.7 0.00 0.02 0.02 77 1018.5
20260905192514 74 91 0.0 0.0 0.00 0.02 0.02 78 1018.4
20260905192017 73 91 0.0 0.0 0.00 0.02 0.02 79 1018.4
20260905191530 73 91 0.0 3.5 0.00 0.02 0.02 80 1018.5
20260905191016 72 91 0.0 3.5 0.00 0.02 0.02 79 1018.5
20260905190518 72 65 0.0 2.6 0.00 0.02 0.02 80 1018.5
20260905190035 72 54 0.0 3.5 0.00 0.02 0.02 80 1018.5
20260905185517 72 5 0.9 3.5 0.00 0.02 0.02 80 1018.5
20260905185017 72 15 1.7 4.3 0.00 0.02 0.02 80 1018.6
20260905184536 72 23 1.7 4.3 0.00 0.02 0.02 79 1018.6
20260905184018 72 14 0.0 3.5 0.00 0.02 0.02 80 1018.5
20260905183519 72 352 0.9 3.5 0.00 0.02 0.02 80 1018.5
20260905183033 72 85 0.0 2.6 0.00 0.02 0.02 81 1018.5
20260905182516 72 10 0.0 3.5 0.00 0.02 0.02 81 1018.5
20260905182016 72 16 0.9 4.3 0.00 0.02 0.02 82 1018.6
20260905181532 72 14 1.7 4.3 0.00 0.02 0.02 81 1018.6
20260905181017 71 85 0.0 2.6 0.00 0.02 0.02 83 1018.6
20260905180515 71 360 1.7 2.6 0.00 0.02 0.02 83 1018.7
20260905180032 71 61 0.0 2.6 0.00 0.02 0.02 83 1018.6
20260905175516 71 61 0.0 3.5 0.00 0.02 0.02 82 1018.6
20260905175019 71 19 0.9 3.5 0.00 0.02 0.02 82 1018.6
20260905174541 71 5 1.7 3.5 0.00 0.02 0.02 83 1018.6